NOAA-16
1 26536U 00055A 10350.54717423 .00000286 00000-0 17940-3 0 1121
2 26536 099.1601 012.2183 0010692 182.1045 178.0087 14.12590669527576
NOAA-17
1 27453U 02032A 10350.51957994 .00000168 00000-0 91003-4 0 1046
2 27453 098.4073 033.3866 0011172 328.6243 031.4278 14.24219161440658
NOAA-18
1 28654U 05018A 10350.49134474 .00000286 00000-0 18257-3 0 5925
2 28654 098.9736 296.4242 0013599 259.5344 100.4302 14.11418321287156
NOAA-19
1 33591U 09005A 10350.51926593 .00000282 00000-0 18066-3 0 7842
2 33591 098.8093 288.9266 0014689 131.1812 229.0617 14.11113545 95621
HUBBLE
1 20580U 90037B 10349.82996429 .00000477 00000-0 23579-4 0 6883
2 20580 028.4683 133.9318 0003271 330.3731 029.6707 15.01116541932076
ISS
1 25544U 98067A 10351.08145596 .00018521 00000-0 13487-3 0 4716
2 25544 051.6476 014.4046 0008022 357.9586 036.2341 15.73344162692243
CO-58
1 28895U 05043F 10349.67320392 .00000263 00000-0 64047-4 0 07537
2 28895 097.9916 227.8739 0019010 076.3393 283.9939 14.59980011273468
FALCON
1 30776U 07006E 10349.52858553 .00000909 00000-0 67476-4 0 9794
2 30776 035.4340 023.0713 0001699 314.7310 045.3268 15.04009180207379
MAST
1 31126U 07012K 10349.67005652 .00000173 00000-0 49355-4 0 00375
2 31126 097.9179 022.0853 0095325 022.3006 338.2269 14.53654163194425
CAPE1
1 31130U 07012P 10350.58524641 .00000165 00000-0 48469-4 0 563
2 31130 097.9194 020.0132 0102997 028.8372 331.8452 14.52266505194135
COMPASS
1 32787U 08021E 10350.73953860 .00000601 00000-0 82150-4 0 8567
2 32787 097.8740 052.7810 0016676 053.6231 306.6598 14.82079938142536
AAUSAT2
1 32788U 08021F 10349.71163816 .00000600 00000-0 81691-4 0 08476
2 32788 097.8733 051.9410 0016132 057.8550 302.4195 14.82236929142399
DO-64
1 32789U 08021G 10349.89922234 .00001268 00000-0 16424-3 0 08655
2 32789 097.8819 052.8282 0016270 056.0056 304.2674 14.82494479142429
CO-66
1 32791U 08021J 10349.30432522 .00000509 00000-0 70969-4 0 08494
2 32791 097.8748 051.3562 0016983 057.0472 303.2340 14.81830225142276
RS-30
1 32953U 08025A 10350.75943174 .00000010 00000-0 00000 0 0 3046
2 32953 082.5019 276.1445 0020158 064.0936 296.2226 12.43009850116427
TACSAT-3
1 35001U 09028A 10349.94007183 .00006644 00000-0 14570-3 0 04701
2 35001 040.4548 200.7069 0023887 286.8861 072.9336 15.44040508088712
PHARMSAT
1 35002U 09028B 10349.90933454 .00006192 00000-0 13465-3 0 04268
2 35002 040.4693 198.4274 0025989 289.2288 070.5729 15.44322016088739
HAWKSAT1
1 35003U 09028C 10350.81022139 .00016638 00000-0 28872-3 0 4635
2 35003 040.4575 180.6745 0024859 318.4999 041.4021 15.50069056 89017
CP6
1 35004U 09028D 10350.85145505 .00022595 00000-0 36419-3 0 4650
2 35004 040.4562 177.3966 0024310 325.1716 034.7498 15.52004943 89048
AEROCUB3
1 35005U 09028E 10350.82776191 .00416186 00000-0 15945-2 0 5642
2 35005 040.4589 153.8651 0023486 348.1753 011.8515 15.85095971 89309
METEOR-M
1 35865U 09049A 10350.67821250 .00000176 00000-0 10000-3 0 9289
2 35865 098.7349 042.9371 0002134 181.7313 178.3809 14.21833517 64651
RS-38
1 35869U 09049E 10350.77023015 .00000177 00000-0 10000-3 0 9402
2 35869 098.7322 043.0679 0004281 189.0786 171.0281 14.21996109 64672
